Change the Weather History Date:

Wednesday, March 28, 2012

  Actual Average Record
Temperature  
Mean Temperature 46 °F 43 °F  
Max Temperature 51 °F 53 °F 72 °F (1941)
Min Temperature 40 °F 34 °F 15 °F (1965)
Degree Days  
Heating Degree Days 19 22  
Month to date heating degree days 745 704  
Since 1 July heating degree days 5424 5533  
Cooling Degree Days 0 0  
Month to date cooling degree days 0 0  
Year to date cooling degree days 0 0  
Moisture  
Dew Point 35 °F    
Average Humidity 70    
Maximum Humidity 96    
Minimum Humidity 44    
Precipitation  
Precipitation 0.23 in 0.06 in 0.56 in (1934)
Month to date precipitation 3.59 1.46  
Year to date precipitation 7.08 4.58  
Snow  
Snow 0.00 in 0.10 in 3.10 in (2008)
Month to date snowfall 5.5 3.2  
Since 1 July snowfall 35.7 43.5  
Snow Depth 0.00 in    
Sea Level Pressure  
Sea Level Pressure 29.76 in    
Wind  
Wind Speed 12 mph (South)    
Max Wind Speed 26 mph    
Max Gust Speed 31 mph    
Visibility 9 miles    
Events Rain    
T = Trace of Precipitation, MM = Missing Value Source: NWS Daily Summary

Daily Weather History Graph

Daily Weather History Graph

Search for Another Location

Airport or City:

Trip Planner

Search our weather history database for the weather conditions in past years. The results will help you decide how hot, cold, wet, or windy it might be!

Date:

Astronomy

Mar. 28, 2012 Rise Set
Actual Time 6:35 AM PDT 7:15 PM PDT
Civil Twilight 6:04 AM PDT 7:46 PM PDT
Nautical Twilight 5:27 AM PDT 8:23 PM PDT
Astronomical Twilight 4:49 AM PDT 9:01 PM PDT
Moon 9:34 AM PDT (3/28) 12:42 AM PDT (3/28)
Length of Visible Light 13h 41m
Length of Day
12h 39m
Waxing Crescent, 31% of the Moon is Illuminated
Mar 28
Waxing Crescent
Mar 30
First Quarter
Apr 6
Full
Apr 13
Last Quarter
Apr 21
New

Hourly Weather History & Observations

Time (PDT) Temp. Windchill Dew Point Humidity Pressure Visibility Wind Dir Wind Speed Gust Speed Precip Events Conditions
12:53 AM 44.1 °F 41.5 °F 39.0 °F 82% 29.69 in 10.0 mi East 4.6 mph - 0.00 in Rain Light Rain
1:53 AM 44.1 °F 40.8 °F 39.9 °F 85% 29.71 in 8.0 mi South 5.8 mph - 0.05 in Rain Light Rain
2:53 AM 43.0 °F 39.5 °F 39.9 °F 89% 29.68 in 10.0 mi ESE 5.8 mph - 0.03 in   Overcast
3:53 AM 42.1 °F 39.2 °F 41.0 °F 96% 29.67 in 10.0 mi ESE 4.6 mph - N/A   Overcast
4:53 AM 43.0 °F 38.8 °F 39.9 °F 89% 29.66 in 10.0 mi SE 6.9 mph - N/A   Overcast
5:53 AM 43.0 °F 38.8 °F 39.0 °F 86% 29.66 in 10.0 mi SE 6.9 mph - N/A   Scattered Clouds
6:53 AM 42.1 °F 36.1 °F 37.9 °F 85% 29.68 in 10.0 mi SSE 10.4 mph - N/A   Mostly Cloudy
7:53 AM 42.1 °F 37.1 °F 37.9 °F 85% 29.69 in 10.0 mi SSE 8.1 mph - N/A   Overcast
8:16 AM 42.8 °F 35.4 °F 39.2 °F 87% 29.69 in 3.0 mi SSW 15.0 mph 19.6 mph 0.03 in Rain Light Rain
8:53 AM 41.0 °F 31.9 °F 37.0 °F 86% 29.73 in 5.0 mi WSW 19.6 mph - 0.13 in Rain Light Rain
9:09 AM 39.2 °F 29.6 °F 35.6 °F 87% 29.71 in 9.0 mi SW 19.6 mph - 0.01 in Rain Light Rain
9:53 AM 41.0 °F 35.2 °F 37.0 °F 86% 29.75 in 10.0 mi South 9.2 mph - 0.02 in   Mostly Cloudy
10:53 AM 41.0 °F 35.2 °F 37.9 °F 89% 29.78 in 10.0 mi South 9.2 mph - N/A   Mostly Cloudy
11:53 AM 45.0 °F 38.5 °F 37.9 °F 76% 29.79 in 10.0 mi SSW 13.8 mph 21.9 mph N/A   Mostly Cloudy
12:27 PM 46.4 °F 39.8 °F 35.6 °F 66% 29.76 in 10.0 mi SW 16.1 mph - N/A   Mostly Cloudy
12:53 PM 46.9 °F - 35.1 °F 63% 29.79 in 10.0 mi SW 17.3 mph 24.2 mph N/A   Mostly Cloudy
1:53 PM 46.9 °F - 34.0 °F 61% 29.81 in 10.0 mi SSW 18.4 mph 27.6 mph 0.00 in Rain Light Rain
2:53 PM 50.0 °F - 30.9 °F 48% 29.80 in 10.0 mi SW 19.6 mph - 0.00 in   Mostly Cloudy
3:53 PM 51.1 °F - 30.9 °F 46% 29.79 in 10.0 mi SSW 24.2 mph 27.6 mph 0.00 in   Mostly Cloudy
4:53 PM 48.9 °F - 30.0 °F 48% 29.81 in 10.0 mi SW 23.0 mph 31.1 mph N/A   Mostly Cloudy
5:53 PM 48.9 °F - 28.9 °F 46% 29.83 in 10.0 mi SW 15.0 mph 25.3 mph N/A   Mostly Cloudy
6:53 PM 48.0 °F - 28.9 °F 48% 29.83 in 10.0 mi SW 12.7 mph - N/A   Scattered Clouds
7:53 PM 46.0 °F 41.0 °F 30.0 °F 54% 29.84 in 10.0 mi SSW 10.4 mph - N/A   Mostly Cloudy
8:53 PM 44.1 °F 40.8 °F 30.0 °F 58% 29.86 in 10.0 mi SSE 5.8 mph - N/A   Mostly Cloudy
9:53 PM 44.1 °F 39.5 °F 32.0 °F 63% 29.87 in 10.0 mi South 8.1 mph - N/A   Overcast
10:53 PM 43.0 °F 37.2 °F 34.0 °F 71% 29.86 in 10.0 mi South 10.4 mph - N/A   Mostly Cloudy
11:53 PM 42.1 °F 36.6 °F 34.0 °F 73% 29.86 in 10.0 mi South 9.2 mph - N/A   Mostly Cloudy